Location: Unspecified
(48.5670°N, 0.0000°E)
Time: 08:01:06
(UTC+00:00)

Altair - Pass Details

Date: 27 August 2019
Orbit: 1501 x 1683 km, 47.2° (Epoch: 16 October)

Event Time Altitude Azimuth Distance (km) Brightness Sun altitude
Exits shadow 03:16:43 22° 243° (WSW) 2,994 8.4 -17.3°
Maximum altitude 03:23:40 74° 164° (SSE) 1,644 7.5 -16.4°
Drops below altitude 10° 03:33:06 10° 81° (E) 3,731 10.5 -15.1°
Sets 03:36:06 0° 80° (E) 4,694 11.3 -14.7°
